CZ-3C DEB, 40861

Orbit data source: Space-Track

CZ-3C DEB, 40861 is space debris in HEO originally from a launch on Fri, 24 Feb 2012 UTC launched from the Xichang Space Center, China (XSC). Debris objects in space refer to the collection of defunct objects orbiting the Earth. Examples of debris include non-operational satellites, rocket bodies, and fragments generated from explosions, collisions, or faulty payload assembly.

Loading next visibility...
Identifier
40861, 2012-008AB
Orbit
HEO
Country
Flag of CNCN / PRC
Related business
Manufacturer
CALT
Mission
Spacecraft
Bus & Motor
Unknown
Mass
Unknown
Launch date (UTC)
2012-02-24 (14 years ago)
Launch vehicle
Unknown
Launch site
Xichang Space Center, China (XSC)
Object type
Payload
Rocket body
Debris
Shape & HBR
Unknown shape, 0.1 m
Radar Cross Section
Medium (>0.1 m² and <1 m²)

Expand to show TLE details & history
Last TLE update: 1 day ago

TLE from 1 day ago
0 CZ-3C DEB
1 40861U 12008AB  25339.36458269 -.00000070  00000-0 -38906-3 0  9993
2 40861  21.0291  42.9325 7098730 155.0145 270.2977  2.28994480 92029
Epoch: 2025-12-05T08:44Z
TLE epoch observation values (Epoch: 2025-12-05T08:44:59.944Z)
Latitude
0.00005°
Longitude
-162.76271°
Altitude
27,504.951 km
Speed
2.671 km/s
True Right ascension
02h 51m 34s
True Declination
0° 00' 00"
Sunlit
Object was in daylight at epoch
Visualization orbit readout
Latitude
Unknown
Longitude
Unknown
Altitude
Unknown
Speed
Unknown
Apparent Right ascension
Unknown
Apparent Declination
Unknown
Sunlit
N/A
Visualization observer readout
Local Sidereal Time
06:49:23
Azimuth
Unknown
Elevation
Unknown
Doppler factor
Unknown
Orbital elements
Apogee altitude
35,202.455 km
Perigee altitude
677.155 km
Semi-major axis
24,317.942 km
Eccentricity
0.70987
Inclination
21.0291°
RAAN
42.9325°
Arg. of periapsis
155.0145°
True anomaly
204.91728°
Mean anomaly
270.2977°
Eccentric anomaly
236.41473°
Mean motion
0.57234 °/min
Orbital period
629 mins
BSTAR
-0.00038906
Loading maneuver chart data...
Computing Atmospheric mass density...
Loading historical data...
Loading historical data...
Loading historical data...
Loading historical data...
Loading historical data...
Loading historical data...
Loading historical data...

Documentation

Showing up to 5 results
|